Johnstown, PA

10:46 AM EDT on October 01, 2016 (GMT -0400)
Johnstown-Cambria County

Weather History for KJST - February, 2013

Change the Weather History Date:

Tuesday, February 19, 2013

  Actual Average Record
Temperature  
Mean Temperature 29 °F 28 °F  
Max Temperature 39 °F 35 °F 69 °F (1939)
Min Temperature 19 °F 21 °F -8 °F (2015)
Degree Days  
Heating Degree Days 36 37  
Month to date heating degree days 737  
Since 1 July heating degree days 4554  
Cooling Degree Days 0 0  
Month to date cooling degree days 0  
Year to date cooling degree days 0  
Moisture  
Dew Point 23 °F    
Average Humidity 79    
Maximum Humidity 93    
Minimum Humidity 48    
Precipitation  
Precipitation 0.14 in 0.09 in 2.09 in (1986)
Month to date precipitation 1.58  
Year to date precipitation 4.46  
Sea Level Pressure  
Sea Level Pressure 29.75 in    
Wind  
Wind Speed 15 mph (SW)    
Max Wind Speed 30 mph    
Max Gust Speed 45 mph    
Visibility 5 miles    
Events Rain , Snow    
T = Trace of Precipitation, MM = Missing Value Source: NWS Daily Summary

Daily Weather History Graph

Daily Weather History Graph

Search for Another Location

Airport or City:

Trip Planner

Search our weather history database for the weather conditions in past years. The results will help you decide how hot, cold, wet, or windy it might be!

Date:

Astronomy

Feb. 19, 2013 Rise Set
Actual Time 7:03 AM EST 5:55 PM EST
Civil Twilight 6:35 AM EST 6:23 PM EST
Nautical Twilight 6:03 AM EST 6:55 PM EST
Astronomical Twilight 5:32 AM EST 7:26 PM EST
Moon 12:25 PM EST (2/19) 2:33 AM EST (2/19)
Length of Visible Light 11h 48m
Length of Day
10h 52m
Waxing Gibbous, 67% of the Moon is Illuminated
Feb 19
Waxing Gibbous
Feb 25
Full
Mar 4
Last Quarter
Mar 11
New
Mar 19
First Quarter

Hourly Weather History & Observations

Time (EST) Temp. Windchill Dew Point Humidity Pressure Visibility Wind Dir Wind Speed Gust Speed Precip Events Conditions
12:54 AM 32.0 °F 23.6 °F 16.0 °F 52% 29.98 in 10.0 mi SSE 10.4 mph - N/A   Clear
1:54 AM 33.1 °F 26.9 °F 17.1 °F 52% 29.97 in 10.0 mi South 6.9 mph - N/A   Clear
2:54 AM 37.0 °F 29.3 °F 19.0 °F 48% 29.91 in 10.0 mi South 11.5 mph 17.3 mph N/A   Partly Cloudy
3:54 AM 37.9 °F 29.2 °F 19.9 °F 48% 29.86 in 10.0 mi South 15.0 mph - N/A   Mostly Cloudy
4:54 AM 37.0 °F 29.3 °F 19.9 °F 50% 29.85 in 10.0 mi South 11.5 mph - N/A   Overcast
5:11 AM 33.8 °F 26.4 °F 24.8 °F 70% 29.82 in 2.0 mi SSW 9.2 mph - 0.03 in Snow Light Snow
5:37 AM 33.8 °F 27.7 °F 28.4 °F 81% 29.79 in 5.0 mi South 6.9 mph - 0.05 in Snow Light Snow
5:45 AM 33.8 °F 27.7 °F 26.6 °F 75% 29.78 in 8.0 mi SE 6.9 mph - 0.05 in Snow Light Snow
5:54 AM 34.0 °F 27.2 °F 26.1 °F 73% 29.83 in 9.0 mi SE 8.1 mph - 0.05 in   Overcast
6:54 AM 36.0 °F 26.0 °F 25.0 °F 64% 29.81 in 9.0 mi South 17.3 mph 26.5 mph 0.00 in Snow Light Snow
7:01 AM 35.6 °F 25.9 °F 24.8 °F 65% 29.75 in 6.0 mi South 16.1 mph 25.3 mph 0.00 in Snow Light Snow
7:17 AM 33.8 °F 22.5 °F 26.6 °F 75% 29.74 in 2.0 mi South 19.6 mph 24.2 mph 0.00 in Snow Light Snow
7:43 AM 32.0 °F 21.6 °F 30.2 °F 93% 29.73 in 0.8 mi South 15.0 mph - 0.00 in Snow Light Snow
7:54 AM 33.1 °F 21.9 °F 30.0 °F 89% 29.79 in 1.8 mi South 18.4 mph - 0.00 in Snow Light Snow
7:58 AM 33.8 °F 23.5 °F 30.2 °F 87% 29.73 in 3.0 mi South 16.1 mph - 0.00 in Snow Light Snow
8:54 AM 33.1 °F 22.6 °F 30.0 °F 89% 29.77 in 10.0 mi SSE 16.1 mph - 0.01 in Rain Light Rain
9:29 AM 33.8 °F 24.8 °F 32.0 °F 93% 29.70 in 10.0 mi South 12.7 mph - 0.00 in Rain Light Rain
9:54 AM 34.0 °F 25.0 °F 32.0 °F 92% 29.76 in 9.0 mi South 12.7 mph - 0.00 in Rain Light Rain
10:02 AM 33.8 °F 25.8 °F 32.0 °F 93% 29.69 in 6.0 mi South 10.4 mph - 0.01 in Rain Light Rain
10:39 AM 35.6 °F 27.5 °F 33.8 °F 93% 29.69 in 6.0 mi SSW 11.5 mph 20.7 mph 0.02 in Rain Light Rain
10:54 AM 36.0 °F 27.5 °F 34.0 °F 93% 29.73 in 8.0 mi SSW 12.7 mph 21.9 mph 0.02 in Rain Light Rain
11:02 AM 35.6 °F 28.0 °F 33.8 °F 93% 29.68 in 8.0 mi SSW 10.4 mph - 0.00 in Rain Light Rain
11:54 AM 37.0 °F 28.9 °F 34.0 °F 89% 29.70 in 10.0 mi SSW 12.7 mph 21.9 mph 0.00 in Rain Light Rain
12:50 PM 37.4 °F 28.2 °F 33.8 °F 87% 29.62 in 10.0 mi SSW 16.1 mph 27.6 mph 0.01 in Rain Light Rain
1:54 PM 39.0 °F 29.6 °F 33.1 °F 79% 29.63 in 10.0 mi SW 18.4 mph 26.5 mph 0.00 in Rain Light Rain
2:00 PM 37.4 °F 26.9 °F 32.0 °F 81% 29.59 in 2.5 mi West 20.7 mph 26.5 mph 0.02 in Rain Heavy Rain
2:06 PM 33.8 °F 23.5 °F 30.2 °F 87% 29.60 in 1.0 mi West 16.1 mph 26.5 mph 0.05 in Snow Light Snow
2:08 PM 33.8 °F 23.5 °F 30.2 °F 87% 29.60 in 1.0 mi West 16.1 mph 26.5 mph 0.05 in Snow Light Snow
2:17 PM 33.8 °F 22.5 °F 32.0 °F 93% 29.60 in 3.0 mi West 19.6 mph 25.3 mph 0.05 in Snow Light Snow
2:49 PM 33.8 °F 21.6 °F 30.2 °F 87% 29.62 in 10.0 mi WSW 23.0 mph 34.5 mph 0.06 in   Overcast
2:54 PM 33.1 °F 20.3 °F 30.0 °F 89% 29.68 in 10.0 mi WSW 24.2 mph 35.7 mph 0.06 in   Overcast
3:01 PM 33.8 °F 22.8 °F 30.2 °F 87% 29.63 in 10.0 mi WSW 18.4 mph 35.7 mph N/A   Overcast
3:34 PM 32.0 °F 19.5 °F 26.6 °F 80% 29.65 in 10.0 mi West 21.9 mph 31.1 mph 0.00 in   Overcast
3:43 PM 32.0 °F 20.5 °F 24.8 °F 75% 29.65 in 10.0 mi West 18.4 mph 27.6 mph 0.00 in   Overcast
3:54 PM 32.0 °F 20.8 °F 25.0 °F 75% 29.72 in 10.0 mi West 17.3 mph 24.2 mph 0.00 in   Overcast
4:42 PM 30.2 °F 18.9 °F 21.2 °F 69% 29.69 in 10.0 mi West 16.1 mph 29.9 mph 0.00 in   Overcast
4:54 PM 30.0 °F 18.3 °F 19.9 °F 66% 29.75 in 10.0 mi West 17.3 mph 29.9 mph 0.00 in   Overcast
5:21 PM 28.4 °F 18.0 °F 21.2 °F 74% 29.70 in 6.0 mi West 12.7 mph 25.3 mph 0.00 in Snow Light Snow
5:54 PM 28.0 °F 18.1 °F 21.9 °F 78% 29.79 in 3.0 mi West 11.5 mph 18.4 mph 0.00 in Snow Light Snow
6:09 PM 26.6 °F 13.4 °F 23.0 °F 86% 29.74 in 1.8 mi West 18.4 mph 25.3 mph 0.00 in Snow Light Snow
6:22 PM 26.6 °F 15.2 °F 24.8 °F 93% 29.74 in 1.0 mi West 13.8 mph 25.3 mph 0.00 in Snow Light Snow
6:29 PM 26.6 °F 15.2 °F 24.8 °F 93% 29.74 in 3.0 mi West 13.8 mph - 0.00 in Snow Light Snow
7:44 PM 24.8 °F 11.1 °F 19.4 °F 80% 29.78 in 1.8 mi West 18.4 mph 24.2 mph 0.00 in Snow Light Snow
7:47 PM 24.8 °F 11.5 °F 19.4 °F 80% 29.77 in 3.0 mi West 17.3 mph 24.2 mph 0.00 in Snow Light Snow
7:54 PM 24.1 °F 10.6 °F 18.0 °F 77% 29.85 in 6.0 mi West 17.3 mph 25.3 mph 0.00 in Snow Light Snow
8:02 PM 24.8 °F 11.1 °F 15.8 °F 69% 29.77 in 8.0 mi West 18.4 mph 26.5 mph N/A   Overcast
8:25 PM 24.8 °F 12.4 °F 15.8 °F 69% 29.77 in 10.0 mi West 15.0 mph 24.2 mph N/A   Overcast
8:40 PM 24.8 °F 12.4 °F 17.6 °F 74% 29.77 in 1.8 mi West 15.0 mph - 0.00 in Snow Light Snow
8:54 PM 23.0 °F 10.6 °F 18.0 °F 81% 29.86 in 1.5 mi West 13.8 mph 21.9 mph 0.00 in Snow Light Snow
9:07 PM 21.2 °F 6.8 °F 17.6 °F 86% 29.78 in 0.8 mi West 17.3 mph 25.3 mph 0.00 in Snow Light Snow
9:15 PM 21.2 °F 6.8 °F 17.6 °F 86% 29.78 in 0.8 mi West 17.3 mph 26.5 mph 0.00 in Snow Light Snow
9:27 PM 21.2 °F 7.8 °F 19.4 °F 93% 29.78 in 0.8 mi West 15.0 mph 28.8 mph 0.00 in Snow Light Snow
9:41 PM 21.2 °F 5.6 °F 17.6 °F 86% 29.78 in 0.8 mi West 20.7 mph 32.2 mph 0.00 in Snow Light Snow
9:54 PM 21.0 °F 4.6 °F 16.0 °F 81% 29.85 in 0.8 mi West 23.0 mph 36.8 mph 0.00 in Snow Light Snow
10:03 PM 21.2 °F 5.2 °F 15.8 °F 80% 29.77 in 1.5 mi West 21.9 mph 32.2 mph 0.00 in Snow Light Snow
10:15 PM 21.2 °F 5.6 °F 15.8 °F 80% 29.78 in 2.0 mi West 20.7 mph 29.9 mph 0.00 in Snow Light Snow
10:33 PM 21.2 °F 4.5 °F 12.2 °F 68% 29.78 in 1.5 mi West 24.2 mph 35.7 mph 0.00 in Snow Light Snow
10:50 PM 19.4 °F 0.5 °F 12.2 °F 74% 29.77 in 0.5 mi West 29.9 mph 41.4 mph 0.00 in Snow Snow
10:54 PM 19.9 °F 2.2 °F 12.0 °F 71% 29.85 in 1.0 mi West 26.5 mph 39.1 mph 0.00 in Snow Light Snow
11:13 PM 19.4 °F 2.1 °F 12.2 °F 74% 29.76 in 0.8 mi West 24.2 mph 44.9 mph 0.00 in Snow Light Snow
11:22 PM 19.4 °F 2.5 °F 12.2 °F 74% 29.75 in 2.0 mi West 23.0 mph 34.5 mph 0.00 in Snow Light Snow
11:30 PM 19.4 °F 1.1 °F 12.2 °F 74% 29.75 in 1.2 mi West 27.6 mph 41.4 mph 0.00 in Snow Light Snow
11:54 PM 19.0 °F 2.7 °F 14.0 °F 81% 29.84 in 1.0 mi West 20.7 mph 31.1 mph 0.00 in Snow Light Snow